"Pseudo-MPEC" for ZTs0318 = A11cz8b = A11cEjb

Created 2024 Oct 8 15:00:55 UT using Find_Orb

Click here for an explanation of pseudo-MPECs

 
 Astrometry: 
     A11cz8b* C2024 10 07OJ_U4CZ^oSmSFp'2F%\%YxJmiV;A?RkY-%BdLu1%B'`.'fj,yh1FT05
     A11cz8b  C2024 10 072gMiCGuAstrometry4Z]n\%X.Chv$N*,:N89q#_)j04_1/NkFB(KT05
     A11cz8b  C2024 10 07T6QXVU-;a!iTo`1.iJTjd?S814redacted;9KB)+sbbNI#jJlxsST05
     A11cz8b  C2024 10 07/(v1,*UpJ/b5/PN4r1@kM(tv+clickd!QbN^KV5]=?lgC!*X0Z`ET05
     ZTs0318* C2024 10 08.36100501 02 01.563+19 21 52.26   ~A8EA 16.77iUNEOCPI41
     ZTs0318  C2024 10 08.36135201 02 05.704+19 22 11.02   ~A8EA 16.77iUNEOCPI41
     ZTs0318  C2024 10 08.41439601 12 56.608+20 03 17.25   ~A8EA 17.37gUNEOCPI41
     ZTs0318  C2024 10 08.41474401 13 01.023+20 03 30.51   ~A8EA 17.37gUNEOCPI41
     A11cEjb* C2024 10 08SrexEGrv,6w7xKvJ\1aS*-@N/J`?_G8?here]j*c:jyk(R=$VSiqT08
     A11cEjb  C2024 10 08`M$Ug+ajc%\(=LFGi;li,tu#R+0AVpHZQ$\@c)hbe+he-Xy!3MvjT08
     A11cEjb  C2024 10 08%[!7qHKHLM^l6dOforY:explanationoK'`$(M+X09sd*jgUm9]QT08
     A11cEjb  C2024 10 08`spiRv*KEdvL$U.R`fJKYCicgV?4J@dO6S\f7-2U]848G@SgjXGgT08
     A11cEjb  C2024 10 08!0.X)C\_c5SSq?EX+T;xh.y.;fRM3?Nx(,'KBghBVAP':O_)TxrwT08

Station data:
(I41) Palomar Mountain--ZTF  (N33.357336 W116.859780)  US/California.
   Observers B. T. Bolin, Z. T. F. Collaboration. Measurers B. T. Bolin,
   Z.-Y. Lin, F. J. Masci. 1.2-m f/2.4 Schmidt.
(T05) ATLAS-HKO, Haleakala  (N20.707582 W156.257008)  US/Hawaii.  Observers
   L. Denneau, A. Heinze, H. Weiland, J. Tonry, H. Flewelling, A.
   Fitzsimmons, D. Young, B. Stalder. Measurers L. Denneau, A. Heinze, J.
   Tonry. 0.5-m f/2.0 Schmidt + CCD.
(T08) ATLAS-MLO, Mauna Loa  (N19.536150 W155.576050)  US/Hawaii.  Observers
   L. Denneau, A. Heinze, H. Weiland, J. Tonry, H. Flewelling, A.
   Fitzsimmons, D. Young, B. Stalder. Measurers L. Denneau, A. Heinze, J.
   Tonry. 0.5-m f/2.0 Schmidt + CCD.

Orbital elements:  ZTs0318 = A11cz8b = A11cEjb
   Perigee 2024 Oct 6.7521 +/- 0.000184 TT = 18:03:04 (JD 2460590.2521)
Epoch 2024 Oct  7.0 TT; AMR 49.056 +/- 0.24 m2/kg               Find_Orb
M  79.3791969 +/- 0.06              (J2000 equator)
n 320.2487471 +/- 0.00795           Peri.  243.6807 +/- 0.014
a 45667.988 +/- 0.756               Node   320.0912 +/- 0.0020
e   0.758476 +/- 2.28e-5            Incl.   24.1303 +/- 0.00043
P1618.711m/1.124d          H 32.77  G  0.15   U  9.5
q 11029.894 +/- 1.16    Q 80306.081 +/- 1.12
From 13 observations 2024 Oct. 7-8 (26.4 hr); mean residual 1".039
Residuals in arcseconds: 
241007 T05 3.00+ .380+    241008 I41 .822- .187+    241008 T08 .800- .047+    
241007 T05 .945- .492+    241008 I41 .608+ .190-    241008 T08 1.80- .068-    
241007 T05 1.78- .402-    241008 I41 1.54+ .398-    241008 T08 .633+ .241+    
241007 T05 .046+ .263-    241008 T08 2.20+ .102+    
241008 I41 .263+ .405+    241008 T08 1.11- .243-    

Ephemerides (geocentric):
Date (UTC) HH   RA             Dec           delta  r     elong SM  mag  LuElo " sig PA
---- --------  ------------   ------------  ------ ------ ----- --  ---  ----- --------
2024 10 08 15  02 24 36.992   +23 25 34.41   74540 0.9995 152.7    17.5  141.7 2.61  76
2024 10 08 16  02 39 21.694   +23 41 54.36   71430 0.9994 149.8    17.5  144.5 4.41  79
2024 10 08 17  02 55 40.541   +23 53 46.98   67582 0.9994 146.5    17.4  147.7 7.03  82
2024 10 08 18  03 14 13.536   +23 59 23.30   62925 0.9993 142.7    17.4  151.3 10.9  85
2024 10 08 19  03 36 04.080   +23 55 13.28   57362 0.9993 138.0    17.3  155.5 17.0  88
2024 10 08 20  04 03 02.010   +23 34 01.86   50752 0.9992 132.3    17.2  160.8 27.0  92
2024 10 08 21  04 38 41.919   +22 38 48.91   42890 0.9991 124.4    17.1  167.4 45.7  96
2024 10 08 22  05 31 25.569   +20 20 49.89   33468 0.9990 112.4    16.9  171.9 88.0 102
2024 10 08 23  07 07 51.520   +13 22 53.44   22125 0.9989  89.1    16.8  153.3  229 109
2024 10 09 00  12 01 25.769   -16 18 55.51   11239 0.9988  17.2  C 24??   76.7  955 108
2024 10 09 01  19 35 53.785   -10 45 08.96   18496 0.9989  97.9  m 16.1   32.8  345  69
2024 10 09 02  21 33 10.368   +01 48 40.02   30368 0.9990 128.6  m 16.2   63.5  117  67
2024 10 09 03  22 26 57.547   +07 37 57.33   40323 0.9991 142.3  m 16.4   77.4 57.8  70
2024 10 09 04  23 01 20.775   +11 05 09.81   48607 0.9991 150.5  m 16.6   85.9 33.6  72
2024 10 09 05  23 26 50.135   +13 26 42.12   55561 0.9992 156.2  m 16.7   92.0 21.0  75
2024 10 09 06  23 47 22.543   +15 11 56.78   61418 0.9992 160.2  m 16.8   96.7 13.5  78
2024 10 09 07  00 04 50.953   +16 34 42.14   66332 0.9993 163.2    16.9  100.6 8.72  82
2024 10 09 08  00 20 17.848   +17 42 22.88   70413 0.9993 165.1    17.0  103.9 5.46  86
2024 10 09 09  00 34 21.646   +18 39 20.86   73737 0.9993 166.3    17.0  106.8 3.23  92
2024 10 09 10  00 47 28.043   +19 28 20.91   76360 0.9993 166.6    17.1  109.4 1.71 102
2024 10 09 11  00 59 55.534   +20 11 11.93   78323 0.9993 166.2    17.2  111.9 .765 124
2024 10 09 12  01 11 58.408   +20 49 08.22   79652 0.9993 165.3    17.2  114.2 .366 178
2024 10 09 13  01 23 48.533   +21 23 01.27   80366 0.9993 164.0    17.3  116.4 .302  48
2024 10 09 14  01 35 36.543   +21 53 26.47   80474 0.9993 162.4    17.3  118.7 .111 112
2024 10 09 15  01 47 32.743   +22 20 46.76   79976 0.9992 160.5    17.4  120.9 .528  49
2024 10 09 16  01 59 47.943   +22 45 14.32   78868 0.9992 158.4    17.4  123.1 1.50  62
2024 10 09 17  02 12 34.364   +23 06 50.50   77133 0.9992 156.1    17.4  125.5 2.96  69
2024 10 09 18  02 26 06.826   +23 25 23.79   74748 0.9991 153.5    17.5  128.0 5.06  73
2024 10 09 19  02 40 44.504   +23 40 24.85   71677 0.9991 150.6    17.5  130.7 8.02  77
2024 10 09 20  02 56 53.807   +23 50 56.09   67872 0.9991 147.3    17.4  133.8 12.2  80
2024 10 09 21  03 15 13.504   +23 55 10.10   63262 0.9990 143.6    17.4  137.3 18.3  84
2024 10 09 22  03 36 44.750   +23 49 41.84   57751 0.9989 139.0    17.3  141.4 27.5  87
2024 10 09 23  04 03 12.871   +23 27 31.07   51203 0.9989 133.4    17.2  146.6 42.5  91
2024 10 10 00  04 38 02.013   +22 32 25.83   43414 0.9988 125.7    17.1  153.4 70.0  95
2024 10 10 01  05 29 03.869   +20 18 52.31   34083 0.9987 114.1    16.9  162.8  131 101
2024 10 10 02  07 00 50.414   +13 47 50.58   22834 0.9986  92.0    16.8  164.4  324 109
2024 10 10 03  11 31 38.540   -13 58 19.09   11502 0.9985  23.5  N 22??   97.9 1353 109
2024 10 10 04  19 27 08.054   -11 23 07.82   17782 0.9986  94.6  m 16.1   19.9  547  69
2024 10 10 05  21 31 37.769   +01 49 58.49   29767 0.9987 127.1  m 16.2   50.0  175  68
2024 10 10 06  22 27 05.091   +07 48 23.41   39840 0.9988 141.3  m 16.4   64.0 84.3  71
2024 10 10 07  23 02 09.199   +11 17 54.29   48215 0.9988 149.8  m 16.6   72.5 48.1  74
2024 10 10 08  23 28 00.022   +13 39 43.53   55241 0.9989 155.6  m 16.7   78.6 29.6  77
2024 10 10 09  23 48 45.285   +15 24 30.12   61158 0.9989 159.8  m 16.8   83.2 18.8  81
2024 10 10 10  00 06 21.977   +16 46 28.43   66124 0.9989 162.8  m 16.9   87.0 11.9  85
2024 10 10 11  00 21 54.400   +17 53 13.42   70251 0.9989 164.9  m 17.0   90.3 7.38  91
2024 10 10 12  00 36 01.901   +18 49 11.41   73617 0.9990 166.2    17.0   93.1 4.33  99
2024 10 10 13  00 49 10.685   +19 37 09.27   76280 0.9990 166.7    17.1   95.7 2.32 112
2024 10 10 14  01 01 39.540   +20 18 56.74   78279 0.9990 166.5    17.1   98.1 1.15 138
2024 10 10 15  01 13 42.921   +20 55 48.45   79644 0.9990 165.7    17.2  100.4 .672   2
2024 10 10 16  01 25 32.777   +21 28 35.89   80393 0.9989 164.5    17.3  102.6 .452  38
2024 10 10 17  01 37 19.763   +21 57 54.28   80535 0.9989 163.0    17.3  104.7 .064 153
2024 10 10 18  01 49 14.149   +22 24 06.29   80071 0.9989 161.2    17.4  106.9 .919  54
2024 10 10 19  02 01 26.653   +22 47 23.76   78997 0.9989 159.1    17.4  109.1 2.35  62
2024 10 10 20  02 14 09.332   +23 07 47.69   77298 0.9988 156.8    17.4  111.4 4.45  68
2024 10 10 21  02 27 36.738   +23 25 06.24   74949 0.9988 154.3    17.4  113.8 7.37  72
2024 10 10 22  02 42 07.626   +23 38 49.92   71918 0.9988 151.4    17.4  116.5 11.4  76
2024 10 10 23  02 58 07.715   +23 48 01.45   68153 0.9987 148.2    17.4  119.4 17.1  80
2024 10 11 00  03 16 14.612   +23 50 54.90   63589 0.9987 144.5    17.4  122.8 25.3  83
2024 10 11 01  03 37 27.358   +23 44 09.87   58130 0.9986 140.0    17.3  126.9 37.5  86
2024 10 11 02  04 03 27.059   +23 20 59.91   51642 0.9985 134.4    17.2  131.9 57.2  90
2024 10 11 03  04 37 28.190   +22 25 57.17   43925 0.9985 127.0    17.1  138.7 92.7  95
2024 10 11 04  05 26 54.993   +20 16 19.22   34683 0.9984 115.7    16.9  148.6  170 100
2024 10 11 05  06 54 26.547   +14 08 59.40   23528 0.9983  94.6    16.7  163.1  407 108
2024 10 11 06  11 04 21.921   -11 37 52.72   11849 0.9982  30.5  N 20??  118.7 1689 111
2024 10 11 07  19 17 34.309   -12 04 32.76   17079 0.9982  91.1  M 16.2   15.9  783  70
2024 10 11 08  21 29 58.515   +01 50 36.74   29168 0.9983 125.7  M 16.2   36.7  239  68
2024 10 11 09  22 27 10.526   +07 58 36.00   39360 0.9984 140.4  M 16.4   50.4  113  71
2024 10 11 10  23 02 56.611   +11 30 28.74   47825 0.9985 149.0  M 16.6   58.8 63.3  74
2024 10 11 11  23 29 09.278   +13 52 34.61   54923 0.9985 154.9  M 16.7   64.8 38.6  78
2024 10 11 12  23 50 07.555   +15 36 52.29   60899 0.9986 159.2  M 16.8   69.3 24.3  82
2024 10 11 13  00 07 52.599   +16 58 02.76   65917 0.9986 162.4  M 16.9   73.1 15.3  87
2024 10 11 14  00 23 30.580   +18 03 51.40   70089 0.9986 164.7  M 17.0   76.2 9.43  93
2024 10 11 15  00 37 41.793   +18 58 49.01   73497 0.9986 166.1  M 17.0   79.0 5.53 102
2024 10 11 16  00 50 52.962   +19 45 44.43   76199 0.9986 166.8  M 17.1   81.5 3.01 118
2024 10 11 17  01 03 23.173   +20 26 28.28   78235 0.9986 166.8    17.1   83.9 1.59 145
2024 10 11 18  01 15 27.048   +21 02 15.46   79635 0.9986 166.1    17.2   86.1 0.99   3
2024 10 11 19  01 27 16.623   +21 33 57.46   80418 0.9986 165.0    17.3   88.2 .631  34
2024 10 11 20  01 39 02.573   +22 02 09.34   80594 0.9986 163.6    17.3   90.3 .054  10
2024 10 11 21  01 50 55.139   +22 27 13.50   80164 0.9986 161.8    17.4   92.4 1.25  55
2024 10 11 22  02 03 04.950   +22 49 21.45   79124 0.9986 159.8    17.4   94.5 3.13  63
2024 10 11 23  02 15 43.903   +23 08 33.85   77459 0.9985 157.6    17.4   96.7 5.82  68
2024 10 12 00  02 29 06.296   +23 24 38.58   75147 0.9985 155.0    17.4   99.1 9.54  72
2024 10 12 01  02 43 30.475   +23 37 05.99   72154 0.9984 152.2    17.4  101.7 14.7  76
2024 10 12 02  02 59 21.500   +23 44 59.12   68431 0.9984 149.1    17.4  104.6 21.8  79
2024 10 12 03  03 17 15.863   +23 46 33.51   63912 0.9983 145.4    17.3  107.9 31.9  83
2024 10 12 04  03 38 10.597   +23 38 33.23   58504 0.9983 141.0    17.3  111.8 47.0  86
2024 10 12 05  04 03 42.824   +23 14 24.83   52073 0.9982 135.5    17.2  116.8 71.0  90
2024 10 12 06  04 36 57.977   +22 19 21.52   44427 0.9981 128.2    17.0  123.4  114  95
2024 10 12 07  05 24 54.988   +20 13 16.92   35271 0.9981 117.3    16.9  133.3  205 100
2024 10 12 08  06 48 31.303   +14 27 06.99   24212 0.9980  97.2    16.7  150.5  480 108